Home > Weather > Varese > Past weeks

Flag for Italy Past Weather in Varese, Italy — Yesterday and Last 2 Weeks

Now
65 °F

Mild.


Feels Like: 65 °F
Forecast: 60 / 79 °F
Wind: 1 mph from Southwest

Location: Stabio

Current Time: Jul 31, 2016 at 9:35:03 AM

Latest Report: Jul 31, 2016 at 8:00 AM


Visibility: N/A

Pressure: 29.96 "Hg

Humidity: 98%

Dew Point: 65 °F

Location of VareseLocation

Past Weather in Varese — Graph

°F

Varese Temperature Yesterday

Maximum temperature yesterday: 85 °F (at 5:00 PM)
Minimum temperature yesterday: 64 °F (at 6:00 AM)
Average temperature yesterday: 74 °F

High & Low Weather Summary for the Past Weeks

 TemperatureHumidityPressure
High88 °F (Jul 20, 4:00 PM)100% (Jul 23, 2:00 PM)30.17 "Hg (Jul 23, 2:00 PM)
Low52 °F (Jul 17, 6:00 AM)15% (Jul 16, 5:00 PM)29.89 "Hg (Jul 27, 6:00 PM)
Average72 °F76%30.01 "Hg
* Reported Jul 16 8:00 AM — Jul 31 8:00 AM, Varese, Weather by CustomWeather, © 2016

Note: Actual official high and low records may vary slightly from our data, if they occured in-between our weather recording intervals... More about our weather records

Advertising

Varese Weather History for the Previous 24 Hours

Scroll right to see more
 ConditionsComfort  
Time TempWeatherWind HumidityBarometerVisibility
8:00 AM
Sun, Jul 31
65 °FMild.1 mph98%29.96 "HgN/A
7:00 AM65 °FMild.1 mph97%29.94 "HgN/A
6:00 AM65 °FMild.5 mph98%29.96 "HgN/A
5:00 AM64 °FMild.7 mph95%29.98 "HgN/A
4:00 AM67 °FMild.No wind96%29.95 "HgN/A
3:00 AM67 °FMild.1 mph95%29.96 "HgN/A
2:00 AM69 °FMild.2 mph91%29.95 "HgN/A
1:00 AM68 °FMild.1 mph96%29.95 "HgN/A
12:00 AM69 °FMild.1 mph93%29.94 "HgN/A
11:00 PM
Sat, Jul 30
70 °FMild.1 mph93%29.94 "HgN/A
10:00 PM71 °FMild.1 mph88%29.95 "HgN/A
9:00 PM74 °FMild.1 mph88%29.93 "HgN/A
8:00 PM78 °FWarm.1 mph80%29.93 "HgN/A
7:00 PM82 °FWarm.2 mph62%29.90 "HgN/A
6:00 PM82 °FWarm.6 mph63%29.92 "HgN/A
5:00 PM85 °FWarm.8 mph55%29.91 "HgN/A
4:00 PM83 °FWarm.5 mph58%29.92 "HgN/A
3:00 PM83 °FWarm.5 mph57%29.93 "HgN/A
2:00 PM84 °FWarm.3 mph57%29.94 "HgN/A
1:00 PM83 °FWarm.5 mph61%29.95 "HgN/A
12:00 PM80 °FWarm.2 mph63%29.96 "HgN/A
11:00 AM79 °FWarm.1 mph70%29.97 "HgN/A
10:00 AM76 °FMild.1 mph68%29.98 "HgN/A
9:00 AM72 °FMild.2 mph81%30.00 "HgN/A
Weather by CustomWeather, © 2016

See weather overviewHow to use our weather pages